King Cove, AK

11:33 PM AKST on February 25, 2017 (GMT -0900)
King Cove AP, King Cove, AK

Weather History for PAVC - February, 2014

Change the Weather History Date:

Thursday, February 6, 2014

  Actual Average (PACD) Record (PACD)
Temperature  
Mean Temperature 40 °F -  
Max Temperature 45 °F 31 °F 46 °F (1957)
Min Temperature 34 °F 22 °F -5 °F (1991)
Degree Days  
Heating Degree Days 26    
Moisture  
Dew Point 34 °F    
Average Humidity 87    
Maximum Humidity 100    
Minimum Humidity 70    
Precipitation  
Precipitation 0.00 in - - ()
Sea Level Pressure  
Sea Level Pressure 30.47 in    
Wind  
Wind Speed 10 mph (WNW)    
Max Wind Speed 31 mph    
Max Gust Speed 45 mph    
Visibility 7 miles    
Events Fog    
Averages and records for this station are not official NWS values.
T = Trace of Precipitation, MM = Missing Value Source: NWS Daily Summary

Daily Weather History Graph

Daily Weather History Graph

Search for Another Location

Airport or City:

Trip Planner

Search our weather history database for the weather conditions in past years. The results will help you decide how hot, cold, wet, or windy it might be!

Date:

Astronomy

Feb. 06, 2014 Rise Set
Actual Time 9:30 AM AKST 6:36 PM AKST
Civil Twilight 8:51 AM AKST 7:16 PM AKST
Nautical Twilight 8:07 AM AKST 7:59 PM AKST
Astronomical Twilight 7:25 AM AKST 8:41 PM AKST
Moon 12:11 PM AKST (2/6) 3:00 AM AKST (2/6)
Length of Visible Light 10h 25m
Length of Day
9h 06m
Waxing Crescent, 51% of the Moon is Illuminated
Feb 6
Waxing Crescent
Feb 14
Full
Feb 22
Last Quarter
Feb 28
New
Mar 8
First Quarter

Hourly Weather History & Observations

Time (AKST) Temp. Windchill Dew Point Humidity Pressure Visibility Wind Dir Wind Speed Gust Speed Precip Events Conditions
12:56 AM 39.9 °F - 34.0 °F 79% 30.66 in 10.0 mi Calm Calm - N/A   Overcast
1:56 AM 38.8 °F - 34.0 °F 83% 30.65 in 10.0 mi Calm Calm - N/A   Overcast
3:56 AM 37.9 °F 33.5 °F 34.0 °F 86% 30.63 in 10.0 mi West 5.8 mph - N/A   Overcast
4:56 AM 37.9 °F - 34.0 °F 86% 30.61 in 10.0 mi Calm Calm - N/A   Scattered Clouds
5:56 AM 36.0 °F 30.3 °F 32.9 °F 89% 30.60 in 10.0 mi West 6.9 mph - N/A   Clear
6:56 AM 36.0 °F 30.3 °F 34.0 °F 93% 30.59 in 10.0 mi West 6.9 mph - N/A   Partly Cloudy
7:56 AM 34.0 °F - 32.9 °F 96% 30.58 in 10.0 mi Calm Calm - N/A   Scattered Clouds
8:56 AM 34.9 °F 27.7 °F 32.9 °F 92% 30.56 in 10.0 mi West 9.2 mph - N/A   Overcast
9:56 AM 36.9 °F 27.5 °F 34.9 °F 93% 30.56 in 10.0 mi WNW 16.1 mph - N/A   Overcast
10:11 AM 37.4 °F 29.3 °F 35.6 °F 93% 30.54 in 10.0 mi WNW 12.7 mph - N/A   Overcast
10:27 AM 37.4 °F 28.9 °F 35.6 °F 93% 30.54 in 2.5 mi WNW 13.8 mph - N/A   Overcast
10:30 AM 37.4 °F 28.5 °F 35.6 °F 93% 30.54 in 1.2 mi WNW 15.0 mph - N/A   Overcast
10:40 AM 37.4 °F 28.2 °F 35.6 °F 93% 30.54 in 0.8 mi WNW 16.1 mph - N/A   Overcast
10:43 AM 37.4 °F 28.2 °F 35.6 °F 93% 30.54 in 0.2 mi WNW 16.1 mph - N/A Fog Fog
10:56 AM 36.9 °F 27.8 °F 34.9 °F 93% 30.55 in 0.2 mi WNW 15.0 mph - N/A Fog Fog
11:14 AM 37.4 °F 28.5 °F 35.6 °F 93% 30.54 in 0.2 mi WNW 15.0 mph - 0.00 in Fog Fog
11:29 AM 37.4 °F 28.5 °F 35.6 °F 93% 30.53 in 0.8 mi WNW 15.0 mph - 0.00 in   Overcast
11:56 AM 36.9 °F 27.5 °F 36.0 °F 97% 30.54 in 0.2 mi WNW 16.1 mph - 0.00 in Fog Fog
12:15 PM 37.4 °F 27.8 °F 35.6 °F 93% 30.52 in 0.8 mi WNW 17.3 mph - N/A   Overcast
12:19 PM 37.4 °F 27.8 °F 37.4 °F 100% 30.52 in 1.2 mi WNW 17.3 mph - N/A   Overcast
12:25 PM 37.4 °F 28.2 °F 37.4 °F 100% 30.52 in 2.0 mi West 16.1 mph - N/A   Overcast
12:37 PM 37.4 °F 28.2 °F 37.4 °F 100% 30.51 in 10.0 mi West 16.1 mph - N/A   Overcast
12:56 PM 37.9 °F 27.6 °F 36.0 °F 93% 30.51 in 2.5 mi WNW 20.7 mph - N/A   Overcast
1:09 PM 37.4 °F 27.8 °F 35.6 °F 93% 30.51 in 5.0 mi WNW 17.3 mph - N/A   Overcast
1:16 PM 37.4 °F 28.2 °F 35.6 °F 93% 30.50 in 2.5 mi WNW 16.1 mph - N/A   Mostly Cloudy
1:24 PM 37.4 °F 28.5 °F 35.6 °F 93% 30.50 in 3.0 mi West 15.0 mph - N/A   Mostly Cloudy
1:56 PM 41.9 °F 36.9 °F 36.9 °F 82% 30.49 in 10.0 mi West 8.1 mph 19.6 mph N/A   Clear
2:56 PM 45.0 °F 39.7 °F 36.0 °F 71% 30.45 in 10.0 mi WNW 10.4 mph 23.0 mph N/A   Clear
3:56 PM 45.0 °F 39.3 °F 36.0 °F 71% 30.43 in 10.0 mi West 11.5 mph - N/A   Partly Cloudy
4:56 PM 41.9 °F 34.3 °F 32.9 °F 70% 30.37 in 10.0 mi WSW 15.0 mph - N/A   Clear
5:56 PM 41.0 °F 35.8 °F 32.9 °F 73% 30.35 in 10.0 mi WSW 8.1 mph 23.0 mph N/A   Clear
6:56 PM 38.8 °F 31.6 °F 32.0 °F 76% 30.32 in 10.0 mi West 11.5 mph 18.4 mph N/A   Partly Cloudy
7:56 PM 36.0 °F 23.5 °F 32.0 °F 86% 30.29 in 10.0 mi WNW 27.6 mph 35.7 mph N/A   Clear
8:56 PM 36.0 °F 26.3 °F 31.1 °F 82% 30.27 in 10.0 mi WNW 16.1 mph 29.9 mph N/A   Clear
9:56 PM 36.0 °F 24.4 °F 30.0 °F 79% 30.23 in 10.0 mi West 23.0 mph 34.5 mph 0.00 in   Partly Cloudy
10:56 PM 36.0 °F 23.2 °F 28.0 °F 73% 30.18 in 10.0 mi West 28.8 mph 39.1 mph 0.00 in   Mostly Cloudy
11:27 PM 35.6 °F 23.2 °F 30.2 °F 81% 30.14 in 2.5 mi West 26.5 mph 42.6 mph 0.00 in   Overcast
11:40 PM 35.6 °F 27.1 °F 30.2 °F 81% 30.15 in 10.0 mi West 12.7 mph 35.7 mph 0.00 in   Overcast
11:56 PM 37.4 °F 24.8 °F 30.2 °F 75% 30.11 in 10.0 mi WNW 31.1 mph 44.9 mph N/A   Mostly Cloudy